User: anonymous   Login
Location: Ostrava
(49.8330°N, 18.2830°E)
Time: 18:31:02
(UTC+02:00)
Language:

NOAA 19 - Orbit

View from above orbital plane
View from above orbital plane
View from above satellite
View from above satellite

Ground track
Ground track

The orbit data is extracted from the following two-line orbital elements,

1 33591U 09005A   17147.86373515 +.00000055 +00000-0 +55207-4 0  9996
2 33591 099.0909 114.4018 0013531 333.7083 026.3400 14.12182549427520
Epoch (UTC): 27 May 2017 20:43:46
Eccentricity: 0.0013531
inclination: 99.0909°
perigee height: 842 km
apogee height: 861 km
right ascension of ascending node: 114.4018°
argument of perigee: 333.7083°
revolutions per day: 14.12182549
mean anomaly at epoch: 26.3400°
orbit number at epoch: 42752

The dashed part of the orbit path shows where the satellite is in the earth's shadow,  

DLR